ギブス彗星

406P/Gibbs (2007)

English version
Home page
Updated on December 11, 2020

---------------------------------------------------------------------

・ プロフィール

符号 406P/2007 R2
発見日 2007年9月10日
発見光度 18.2等
発見者 A. R. Gibbs (Catalina Sky Survey)

・ 写真集

・ 軌道要素

Epoch 2007 Aug. 8.0 TT = JDT 2454320.5                                          
T 2007 Aug. 26.66755 TT                                 Rudenko                 
q   1.4657725            (2000.0)            P               Q                  
n   0.15456570     Peri.  353.04131     +0.99946531     -0.03247097             
a   3.4386975      Node     8.82220     +0.03107560     +0.90683464             
e   0.5737419      Incl.    1.43388     +0.01016858     +0.42023396             
P   6.38                                                                        
From 210 observations 2007 Sept. 10-2020 Oct. 20, mean residual 0".7.           

・ 光度変化

        m1 = 17.5 + 5 logΔ + 10.0 log r

---------------------------------------------------------------------

軌道要素はM.P.E.C. 2020-U269に掲載されたものです。
光度グラフはComet for Windowsで作成したものです。

---------------------------------------------------------------------

Copyright(C) Seiichi Yoshida (comet@aerith.net). All rights reserved.